Regional Weather Roundup
Issued by NWS Tiyan, Guam

Home | Current Version | Previous Version | Text Only | Print | Product List | Glossary On
Versions: 1 2 3 4 5 6 7 8 9 10 11 12 13 14 15 16 17 18 19 20 21 22 23 24 25 26 27 28
000
ASGM40 PGUM 280112
RWRGUM
WEATHER ROUNDUP FOR THE MARIANAS
NATIONAL WEATHER SERVICE TIYAN GU
1100 AM CHST TUE MAR 28 2017

GUZ001>004-280200-
MARIANA ISLANDS-

CITY           SKY/WX    TMP DP  RH WIND       PRES   REMARKS
GUAM AIRPORT   SUNNY     84  72  65 NE16      29.99S
ANDERSEN AFB   MOSUNNY   82  72  69 NE16      30.01S
ROTA AIRPORT   CLOUDY    81  72  74 NE16      30.00S
TINIAN AP      PTSUNNY   82  73  74 NE17      29.98S
SAIPAN AP      MOSUNNY   84  73  70 NE15      29.98F HX  91

$$





USA.gov is the U.S. government's official web portal to all federal, state and local government web resources and services.